Location: Boiro
(42.6475°N, 8.8834°W)
Time: 01:20:43
(UTC+01:00)

Tiros 1 despin weight - Pass Details

Date: 30 November 2021
Orbit: 592 x 641 km, 48.2° (Epoch: 23 January)

Event Time Altitude Azimuth Distance (km) Brightness Sun altitude
Rises 16:56:04 0° 252° (WSW) 2,822 ? 9.3°
Reaches altitude 10° 16:58:21 10° 255° (WSW) 1,919 ? 8.9°
Maximum altitude 17:02:44 67° 339° (NNW) 641 ? 8.3°
Drops below altitude 10° 17:07:07 10° 62° (ENE) 1,925 ? 7.7°
Sets 17:09:26 0° 65° (ENE) 2,831 ? 7.4°
